Location: Churchill Northern Studies Centre
(58.7378°N, 93.8201°W)
Time: 19:18:40
(UTC-05:00)

ISS - Pass Details

Date: 07 October 2017
Orbit: 401 x 408 km, 51.6° (Epoch: 18 October)

Event Time Altitude Azimuth Distance (km) Brightness Sun altitude
Rises 21:14:12 0° 264° (W) 2,329 1.0 -21.6°
Reaches altitude 10° 21:17:05 10° 237° (WSW) 1,468 -0.6 -21.9°
Enters shadow 21:18:11 13° 217° (SW) 1,307 -1.2 -22.0°
